User: anonymous   Login
Location: Unspecified
(0.0000°N, 0.0000°E)
Time: 12:01:04
(UTC+02:00)
Language:

NOSS 3-3 (A) - Orbit

View from above orbital plane
View from above orbital plane
View from above satellite
View from above satellite

Ground track
Ground track

The orbit data is extracted from the following two-line orbital elements,

1 28537U 05004A   15120.81970290 0.00000000  00000-0  00000-0 0    02
2 28537  63.4294  11.5887 0203001 358.8812   1.1188 13.40682161    07
Epoch (UTC): 30 April 2015 19:40:22
Eccentricity: 0.0203001
inclination: 63.4294°
perigee height: 955 km
apogee height: 1258 km
right ascension of ascending node: 11.5887°
argument of perigee: 358.8812°
revolutions per day: 13.40682161
mean anomaly at epoch: 1.1188°
orbit number at epoch: 0

The dashed part of the orbit path shows where the satellite is in the earth's shadow,  

DLR